Tracking 28794 objects as of 20-Apr-2024
HD Live streaming from Space Station
objects crossing your sky now

STARLINK-2282

Track STARLINK-2282 now!
10-day predictions
STARLINK-2282 is classified as:


NORAD ID: 48018
Int'l Code: 2021-024AT
Perigee: 553.2 km
Apogee: 555.2 km
Inclination: 53.1 °
Period: 95.6 minutes
Semi major axis: 6925 km
RCS: Unknown
Launch date: March 24, 2021
Source: United States (US)
Launch site: AIR FORCE EASTERN TEST RANGE (AFETR)
Your satellite tracking list
Your tracking list is empty




NASA's NSSDC Master Catalog

Two Line Element Set (TLE):
1 48018U 21024AT  24110.55643782  .00027175  00000-0  18342-2 0  9990
2 48018  53.0538 175.4585 0001416 107.3179 252.7965 15.06440544170379
Source of the keplerian elements: AFSPC